| time (UTC) | temp C | wind direction | speed KPH | gust KPH | rain 1hr cm | rain 24hr cm | rain mn cm | humidity % | barometer mb |
| 20260502184554 | 9 | 0 | 0.0 | 4.8 | 0.00 | 0.00 | 0.00 | 61 | 1021.9 |
| 20260502183050 | 10 | 279 | 3.2 | 4.8 | 0.00 | 0.00 | 0.00 | 57 | 1021.8 |
| 20260502181548 | 12 | 279 | 1.6 | 9.7 | 0.00 | 0.00 | 0.00 | 51 | 1021.7 |
| 20260502180109 | 13 | 42 | 8.0 | 17.7 | 0.00 | 0.00 | 0.00 | 49 | 1021.3 |
| 20260502163053 | 17 | 52 | 17.7 | 32.2 | 0.00 | 0.00 | 0.00 | 39 | 1020.9 |
| 20260502161554 | 18 | 70 | 16.1 | 27.4 | 0.00 | 0.00 | 0.00 | 36 | 1020.9 |
| 20260502151558 | 18 | 74 | 20.9 | 32.2 | 0.00 | 0.00 | 0.00 | 35 | 1021.1 |
| 20260502123058 | 18 | 46 | 24.1 | 38.6 | 0.00 | 0.00 | 0.00 | 35 | 1022.2 |
| 20260502121603 | 19 | 59 | 19.3 | 32.2 | 0.00 | 0.00 | 0.00 | 38 | 1022.5 |
| 20260502114553 | 18 | 59 | 19.3 | 35.4 | 0.00 | 0.00 | 0.00 | 38 | 1022.8 |
| 20260502113057 | 18 | 92 | 22.5 | 37.0 | 0.00 | 0.00 | 0.00 | 40 | 1022.9 |
| 20260502111559 | 18 | 53 | 20.9 | 37.0 | 0.00 | 0.00 | 0.00 | 42 | 1023.0 |
| 20260502110055 | 18 | 37 | 19.3 | 37.0 | 0.00 | 0.00 | 0.00 | 43 | 1023.2 |
| 20260502104554 | 18 | 82 | 20.9 | 38.6 | 0.00 | 0.00 | 0.00 | 44 | 1023.2 |
| 20260502103105 | 18 | 77 | 17.7 | 35.4 | 0.00 | 0.00 | 0.00 | 44 | 1023.3 |
| 20260502101606 | 17 | 58 | 19.3 | 40.2 | 0.00 | 0.00 | 0.00 | 47 | 1023.4 |
| 20260502100110 | 17 | 17 | 19.3 | 38.6 | 0.00 | 0.00 | 0.00 | 47 | 1023.5 |
| 20260502080105 | 15 | 276 | 4.8 | 14.5 | 0.00 | 0.00 | 0.00 | 57 | 1024.6 |
| 20260502070050 | 13 | 82 | 3.2 | 6.4 | 0.00 | 0.00 | 0.00 | 61 | 1024.8 |
| 20260502064547 | 12 | 0 | 0.0 | 6.4 | 0.00 | 0.00 | 0.00 | 61 | 1024.8 |
| 20260502063042 | 12 | 0 | 1.6 | 9.7 | 0.00 | 0.00 | 0.00 | 63 | 1024.9 |
| 20260502061550 | 11 | 115 | 4.8 | 9.7 | 0.00 | 0.00 | 0.00 | 66 | 1024.9 |
| 20260502060056 | 11 | 107 | 4.8 | 11.3 | 0.00 | 0.00 | 0.00 | 67 | 1024.8 |
| 20260502054550 | 11 | 100 | 4.8 | 9.7 | 0.00 | 0.00 | 0.00 | 67 | 1024.7 |
| 20260502053059 | 10 | 0 | 0.0 | 3.2 | 0.00 | 0.00 | 0.00 | 70 | 1024.8 |
| 20260502051558 | 8 | 0 | 0.0 | 3.2 | 0.00 | 0.00 | 0.00 | 77 | 1024.8 |
| 20260502050056 | 6 | 0 | 0.0 | 3.2 | 0.00 | 0.00 | 0.00 | 81 | 1024.6 |
| 20260502044549 | 5 | 262 | 0.0 | 0.0 | 0.00 | 0.00 | 0.00 | 86 | 1024.6 |
| 20260502043050 | 2 | 262 | 1.6 | 3.2 | 0.00 | 0.00 | 0.00 | 87 | 1024.6 |
| 20260502041549 | 1 | 0 | 0.0 | 4.8 | 0.00 | 0.00 | 0.00 | 86 | 1024.5 |
| 20260502040050 | 0 | 262 | 0.0 | 6.4 | 0.00 | 0.00 | 0.00 | 85 | 1024.5 |
| 20260502034547 | 0 | 0 | 0.0 | 4.8 | 0.00 | 0.00 | 0.00 | 85 | 1024.3 |
| 20260502033053 | 0 | 264 | 1.6 | 6.4 | 0.00 | 0.00 | 0.00 | 83 | 1024.3 |
| 20260502031548 | 0 | 308 | 1.6 | 12.9 | 0.00 | 0.00 | 0.00 | 83 | 1024.1 |
| 20260502030050 | 1 | 245 | 3.2 | 8.0 | 0.00 | 0.00 | 0.00 | 84 | 1024.2 |
| 20260502024544 | 1 | 279 | 0.0 | 3.2 | 0.00 | 0.00 | 0.00 | 82 | 1024.3 |
| 20260502023043 | 2 | 281 | 0.0 | 3.2 | 0.00 | 0.00 | 0.00 | 82 | 1024.2 |
| 20260502021549 | 2 | 281 | 1.6 | 6.4 | 0.00 | 0.00 | 0.00 | 81 | 1024.2 |
| 20260502020047 | 2 | 279 | 1.6 | 6.4 | 0.00 | 0.00 | 0.00 | 80 | 1024.2 |
| 20260502014549 | 3 | 236 | 0.0 | 4.8 | 0.00 | 0.00 | 0.00 | 80 | 1024.3 |
| 20260502013051 | 3 | 236 | 0.0 | 4.8 | 0.00 | 0.00 | 0.00 | 78 | 1024.3 |
| 20260502011603 | 5 | 236 | 0.0 | 4.8 | 0.00 | 0.00 | 0.00 | 76 | 1024.3 |
| 20260502010048 | 5 | 0 | 0.0 | 6.4 | 0.00 | 0.00 | 0.00 | 76 | 1024.4 |
| 20260502004558 | 6 | 285 | 1.6 | 14.5 | 0.00 | 0.00 | 0.00 | 76 | 1024.4 |
| 20260502003044 | 6 | 213 | 6.4 | 8.0 | 0.00 | 0.00 | 0.00 | 75 | 1024.4 |
| 20260502001546 | 7 | 210 | 6.4 | 9.7 | 0.00 | 0.00 | 0.00 | 75 | 1024.6 |
| 20260502000107 | 7 | 255 | 1.6 | 6.4 | 0.00 | 0.00 | 0.00 | 76 | 1024.6 |
| 20260501234542 | 6 | 255 | 4.8 | 8.0 | 0.00 | 0.00 | 0.00 | 77 | 1024.5 |
| 20260501233044 | 6 | 0 | 0.0 | 8.0 | 0.00 | 0.00 | 0.00 | 78 | 1024.6 |
| 20260501231551 | 5 | 0 | 0.0 | 6.4 | 0.00 | 0.00 | 0.00 | 78 | 1024.6 |
| 20260501230043 | 5 | 271 | 3.2 | 4.8 | 0.00 | 0.00 | 0.00 | 77 | 1024.6 |
| 20260501224542 | 5 | 259 | 4.8 | 12.9 | 0.00 | 0.00 | 0.00 | 76 | 1024.6 |
| 20260501223042 | 5 | 247 | 3.2 | 6.4 | 0.00 | 0.00 | 0.00 | 74 | 1024.5 |
| 20260501221603 | 6 | 317 | 0.0 | 6.4 | 0.00 | 0.00 | 0.00 | 75 | 1024.5 |
| 20260501220053 | 5 | 311 | 0.0 | 4.8 | 0.00 | 0.00 | 0.00 | 73 | 1024.5 |
| 20260501214553 | 6 | 310 | 1.6 | 4.8 | 0.00 | 0.00 | 0.00 | 72 | 1024.6 |
| 20260501213049 | 7 | 310 | 0.0 | 8.0 | 0.00 | 0.00 | 0.00 | 71 | 1024.5 |
| 20260501211553 | 8 | 285 | 1.6 | 4.8 | 0.00 | 0.00 | 0.00 | 68 | 1024.2 |
| 20260501210052 | 9 | 282 | 0.0 | 4.8 | 0.00 | 0.00 | 0.00 | 68 | 1024.4 |
| 20260501204553 | 10 | 283 | 3.2 | 6.4 | 0.00 | 0.00 | 0.00 | 66 | 1024.5 |
| 20260501203046 | 10 | 0 | 1.6 | 6.4 | 0.00 | 0.00 | 0.00 | 66 | 1024.5 |
| 20260501201546 | 10 | 252 | 3.2 | 6.4 | 0.00 | 0.00 | 0.00 | 65 | 1024.4 |
| 20260501200052 | 10 | 0 | 3.2 | 11.3 | 0.00 | 0.00 | 0.00 | 64 | 1024.3 |
| 20260501194550 | 11 | 317 | 4.8 | 8.0 | 0.00 | 0.00 | 0.00 | 62 | 1024.5 |
| 20260501193047 | 11 | 310 | 1.6 | 14.5 | 0.00 | 0.00 | 0.00 | 61 | 1024.4 |
| 20260501191550 | 11 | 246 | 9.7 | 19.3 | 0.00 | 0.00 | 0.00 | 62 | 1024.3 |
| 20260501190109 | 11 | 256 | 8.0 | 14.5 | 0.00 | 0.00 | 0.00 | 62 | 1024.3 |